Time,TemperatureF,DewpointF,PressureIn,WindDirection,WindDirectionDegrees,WindSpeedMPH,WindSpeedGustMPH,Humidity,HourlyPrecipIn,Conditions,Clouds,dailyrainin,SoftwareType,DateUTC
2013-04-27 00:15:00,46.2,25.5,29.51,South,180,0.0,-999.0,44,-99.99,,,0.00,Acu-Link.com,2013-04-27 05:15:00,
2013-04-27 00:30:00,46.2,20.7,29.51,SSW,202,0.0,-999.0,36,-99.99,,,0.00,Acu-Link.com,2013-04-27 05:30:00,
2013-04-27 00:46:00,46.2,18.0,29.52,SW,225,0.0,-999.0,32,-99.99,,,0.00,Acu-Link.com,2013-04-27 05:46:00,
2013-04-27 01:03:00,45.0,15.5,29.52,SSW,202,0.0,-999.0,30,-99.99,,,0.00,Acu-Link.com,2013-04-27 06:03:00,
2013-04-27 01:18:00,45.0,-2.8,29.53,NNW,337,0.0,-999.0,13,-99.99,,,0.00,Acu-Link.com,2013-04-27 06:18:00,
2013-04-27 01:34:00,44.4,-26.4,29.53,West,270,0.0,-999.0,4,-99.99,,,0.00,Acu-Link.com,2013-04-27 06:34:00,
2013-04-27 01:51:00,44.4,-50.4,29.53,West,270,0.0,-999.0,0,-99.99,,,0.00,Acu-Link.com,2013-04-27 06:51:00,
2013-04-27 02:07:00,43.9,-50.7,29.52,WNW,292,0.0,-999.0,0,-99.99,,,0.00,Acu-Link.com,2013-04-27 07:07:00,
2013-04-27 02:23:00,43.7,-50.8,29.51,SSW,202,0.0,-999.0,0,-99.99,,,0.00,Acu-Link.com,2013-04-27 07:23:00,
2013-04-27 02:38:00,42.8,-51.4,29.51,SSW,202,0.0,-999.0,0,-99.99,,,0.00,Acu-Link.com,2013-04-27 07:38:00,
2013-04-27 02:54:00,41.7,-52.1,29.51,SW,225,0.0,-999.0,0,-99.99,,,0.00,Acu-Link.com,2013-04-27 07:54:00,
2013-04-27 03:12:00,42.3,-51.7,29.51,SSW,202,0.0,-999.0,0,-99.99,,,0.00,Acu-Link.com,2013-04-27 08:12:00,
2013-04-27 03:28:00,42.4,-51.6,29.50,SSW,202,0.0,-999.0,0,-99.99,,,0.00,Acu-Link.com,2013-04-27 08:28:00,
2013-04-27 03:44:00,41.9,-51.9,29.49,SW,225,0.0,-999.0,0,-99.99,,,0.00,Acu-Link.com,2013-04-27 08:44:00,
2013-04-27 04:01:00,41.7,-52.1,29.49,SW,225,0.0,-999.0,0,-99.99,,,0.00,Acu-Link.com,2013-04-27 09:01:00,
2013-04-27 04:17:00,41.5,-52.2,29.49,South,180,0.0,-999.0,0,-99.99,,,0.00,Acu-Link.com,2013-04-27 09:17:00,
2013-04-27 04:33:00,42.1,-51.8,29.49,SSW,202,0.0,-999.0,0,-99.99,,,0.00,Acu-Link.com,2013-04-27 09:33:00,
2013-04-27 04:48:00,41.7,-52.1,29.48,SW,225,0.0,-999.0,0,-99.99,,,0.00,Acu-Link.com,2013-04-27 09:48:00,
2013-04-27 05:07:00,42.8,-51.4,29.48,SSW,202,0.0,-999.0,0,-99.99,,,0.00,Acu-Link.com,2013-04-27 10:07:00,
2013-04-27 05:23:00,43.0,-51.2,29.47,South,180,0.0,-999.0,0,-99.99,,,0.00,Acu-Link.com,2013-04-27 10:23:00,
2013-04-27 05:38:00,44.1,-50.6,29.47,SSW,202,0.0,-999.0,0,-99.99,,,0.00,Acu-Link.com,2013-04-27 10:38:00,
2013-04-27 05:55:00,44.8,-50.1,29.47,SSW,202,0.0,-999.0,0,-99.99,,,0.00,Acu-Link.com,2013-04-27 10:55:00,
2013-04-27 06:12:00,45.1,-50.0,29.47,SSW,202,0.0,-999.0,0,-99.99,,,0.00,Acu-Link.com,2013-04-27 11:12:00,
2013-04-27 06:27:00,45.0,-50.0,29.47,South,180,0.0,-999.0,0,-99.99,,,0.00,Acu-Link.com,2013-04-27 11:27:00,
2013-04-27 06:43:00,44.2,-50.5,29.46,SW,225,0.0,-999.0,0,-99.99,,,0.00,Acu-Link.com,2013-04-27 11:43:00,
2013-04-27 07:00:00,44.4,-50.4,29.47,SW,225,0.0,-999.0,0,-99.99,,,0.00,Acu-Link.com,2013-04-27 12:00:00,
2013-04-27 07:16:00,45.0,-50.0,29.47,SW,225,0.0,-999.0,0,-99.99,,,0.00,Acu-Link.com,2013-04-27 12:16:00,
2013-04-27 07:31:00,46.0,-49.4,29.47,East,90,0.0,-999.0,0,-99.99,,,0.00,Acu-Link.com,2013-04-27 12:31:00,
2013-04-27 07:46:00,46.9,-48.8,29.47,SSW,202,0.0,-999.0,0,-99.99,,,0.00,Acu-Link.com,2013-04-27 12:46:00,
2013-04-27 08:01:00,48.2,-48.1,29.47,SSE,157,0.0,-999.0,0,-99.99,,,0.00,Acu-Link.com,2013-04-27 13:01:00,
2013-04-27 08:16:00,51.1,-46.3,29.46,SSE,157,0.0,-999.0,0,-99.99,,,0.00,Acu-Link.com,2013-04-27 13:16:00,
2013-04-27 08:31:00,53.6,37.4,29.46,SSW,202,0.0,-999.0,54,-99.99,,,0.00,Acu-Link.com,2013-04-27 13:31:00,
2013-04-27 09:01:00,56.8,49.0,29.46,WSW,247,0.0,-999.0,75,-99.99,,,0.00,Acu-Link.com,2013-04-27 14:01:00,
2013-04-27 09:17:00,57.2,49.7,29.46,SSW,202,0.0,-999.0,76,-99.99,,,0.00,Acu-Link.com,2013-04-27 14:17:00,
2013-04-27 09:32:00,56.7,49.2,29.45,SSW,202,0.0,-999.0,76,-99.99,,,0.00,Acu-Link.com,2013-04-27 14:32:00,
2013-04-27 10:24:00,56.7,50.3,29.45,South,180,0.0,-999.0,79,-99.99,,,0.00,Acu-Link.com,2013-04-27 15:24:00,
2013-04-27 10:39:00,60.1,50.7,29.45,West,270,0.0,-999.0,71,-99.99,,,0.00,Acu-Link.com,2013-04-27 15:39:00,
2013-04-27 10:54:00,61.0,51.1,29.44,South,180,0.0,-999.0,70,-99.99,,,0.00,Acu-Link.com,2013-04-27 15:54:00,
2013-04-27 11:09:00,62.6,51.5,29.44,SE,135,0.0,-999.0,67,-99.99,,,0.00,Acu-Link.com,2013-04-27 16:09:00,
2013-04-27 11:24:00,61.5,50.8,29.44,SSW,202,0.0,-999.0,68,-99.99,,,0.00,Acu-Link.com,2013-04-27 16:24:00,
2013-04-27 11:39:00,63.5,51.5,29.44,SE,135,0.0,-999.0,65,-99.99,,,0.00,Acu-Link.com,2013-04-27 16:39:00,
2013-04-27 11:54:00,65.8,52.4,29.43,NNE,22,0.0,-999.0,62,-99.99,,,0.00,Acu-Link.com,2013-04-27 16:54:00,
2013-04-27 12:09:00,64.4,52.4,29.43,SSE,157,0.0,-999.0,65,-99.99,,,0.00,Acu-Link.com,2013-04-27 17:09:00,
2013-04-27 12:24:00,64.9,51.6,29.43,SW,225,0.0,-999.0,62,-99.99,,,0.00,Acu-Link.com,2013-04-27 17:24:00,
2013-04-27 12:39:00,65.7,51.9,29.42,SE,135,0.0,-999.0,61,-99.99,,,0.00,Acu-Link.com,2013-04-27 17:39:00,
2013-04-27 12:55:00,67.5,52.2,29.41,NE,45,0.0,-999.0,58,-99.99,,,0.00,Acu-Link.com,2013-04-27 17:55:00,
2013-04-27 13:10:00,64.6,50.4,29.40,South,180,0.0,-999.0,60,-99.99,,,0.00,Acu-Link.com,2013-04-27 18:10:00,
2013-04-27 13:25:00,66.6,51.8,29.40,NE,45,0.0,-999.0,59,-99.99,,,0.00,Acu-Link.com,2013-04-27 18:25:00,
2013-04-27 13:40:00,66.4,50.7,29.39,SSW,202,0.0,-999.0,57,-99.99,,,0.00,Acu-Link.com,2013-04-27 18:40:00,
2013-04-27 13:55:00,69.4,51.5,29.39,East,90,0.0,-999.0,53,-99.99,,,0.00,Acu-Link.com,2013-04-27 18:55:00,
2013-04-27 14:10:00,69.4,52.5,29.39,SSE,157,0.0,-999.0,55,-99.99,,,0.00,Acu-Link.com,2013-04-27 19:10:00,
2013-04-27 14:25:00,70.9,52.9,29.38,NE,45,0.0,-999.0,53,-99.99,,,0.00,Acu-Link.com,2013-04-27 19:25:00,
2013-04-27 14:40:00,69.3,50.9,29.38,SSE,157,0.0,-999.0,52,-99.99,,,0.00,Acu-Link.com,2013-04-27 19:40:00,
2013-04-27 14:55:00,70.9,52.4,29.38,SSW,202,0.0,-999.0,52,-99.99,,,0.00,Acu-Link.com,2013-04-27 19:55:00,
2013-04-27 15:11:00,69.8,51.4,29.37,SSE,157,0.0,-999.0,52,-99.99,,,0.00,Acu-Link.com,2013-04-27 20:11:00,
2013-04-27 15:26:00,69.4,52.5,29.36,NW,315,0.0,-999.0,55,-99.99,,,0.00,Acu-Link.com,2013-04-27 20:26:00,
2013-04-27 15:41:00,71.8,52.1,29.35,ESE,112,0.0,-999.0,50,-99.99,,,0.00,Acu-Link.com,2013-04-27 20:41:00,
2013-04-27 15:56:00,70.7,51.1,29.35,South,180,0.0,-999.0,50,-99.99,,,0.00,Acu-Link.com,2013-04-27 20:56:00,
2013-04-27 16:11:00,71.6,50.9,29.34,ESE,112,0.0,-999.0,48,-99.99,,,0.00,Acu-Link.com,2013-04-27 21:11:00,
2013-04-27 16:26:00,69.8,50.3,29.33,South,180,0.0,-999.0,50,-99.99,,,0.00,Acu-Link.com,2013-04-27 21:26:00,
2013-04-27 16:41:00,73.0,52.1,29.33,WSW,247,0.0,-999.0,48,-99.99,,,0.00,Acu-Link.com,2013-04-27 21:41:00,
2013-04-27 16:56:00,72.1,50.2,29.32,SE,135,0.0,-999.0,46,-99.99,,,0.00,Acu-Link.com,2013-04-27 21:56:00,
2013-04-27 17:11:00,74.3,51.6,29.32,SSW,202,0.0,-999.0,45,-99.99,,,0.00,Acu-Link.com,2013-04-27 22:11:00,
2013-04-27 17:26:00,76.1,51.3,29.32,NNE,22,0.0,-999.0,42,-99.99,,,0.00,Acu-Link.com,2013-04-27 22:26:00,
2013-04-27 17:42:00,77.4,50.5,29.31,SSE,157,0.0,-999.0,39,-99.99,,,0.00,Acu-Link.com,2013-04-27 22:42:00,
2013-04-27 18:00:00,75.0,49.7,29.31,SSE,157,0.0,-999.0,41,-99.99,,,0.00,Acu-Link.com,2013-04-27 23:00:00,
2013-04-27 19:30:00,66.4,50.2,29.29,South,180,0.0,-999.0,56,-99.99,,,0.00,Acu-Link.com,2013-04-28 00:30:00,
2013-04-27 19:54:00,63.7,50.0,29.29,NE,45,0.0,-999.0,61,-99.99,,,0.00,Acu-Link.com,2013-04-28 00:54:00,
2013-04-27 20:10:00,59.7,49.9,29.30,NNW,337,0.0,-999.0,70,-99.99,,,0.00,Acu-Link.com,2013-04-28 01:10:00,
2013-04-27 20:25:00,57.7,49.5,29.30,South,180,0.0,-999.0,74,-99.99,,,0.00,Acu-Link.com,2013-04-28 01:25:00,
2013-04-27 20:40:00,56.7,49.2,29.30,SE,135,0.0,-999.0,76,-99.99,,,0.00,Acu-Link.com,2013-04-28 01:40:00,
2013-04-27 20:55:00,55.8,49.0,29.31,SSE,157,0.0,-999.0,78,-99.99,,,0.00,Acu-Link.com,2013-04-28 01:55:00,
2013-04-27 21:10:00,55.2,48.8,29.31,WNW,292,0.0,-999.0,79,-99.99,,,0.00,Acu-Link.com,2013-04-28 02:10:00,
2013-04-27 21:25:00,54.5,49.1,29.32,South,180,0.0,-999.0,82,-99.99,,,0.00,Acu-Link.com,2013-04-28 02:25:00,
2013-04-27 21:40:00,53.6,48.9,29.31,South,180,0.0,-999.0,84,-99.99,,,0.00,Acu-Link.com,2013-04-28 02:40:00,
2013-04-27 21:55:00,52.5,48.1,29.31,SSW,202,0.0,-999.0,85,-99.99,,,0.00,Acu-Link.com,2013-04-28 02:55:00,
2013-04-27 22:10:00,50.9,47.2,29.31,South,180,0.0,-999.0,87,-99.99,,,0.00,Acu-Link.com,2013-04-28 03:10:00,
2013-04-27 22:26:00,50.7,47.0,29.32,SSW,202,0.0,-999.0,87,-99.99,,,0.00,Acu-Link.com,2013-04-28 03:26:00,
2013-04-27 22:41:00,49.8,46.1,29.31,WSW,247,0.0,-999.0,87,-99.99,,,0.00,Acu-Link.com,2013-04-28 03:41:00,
2013-04-27 22:56:00,48.9,44.6,29.31,South,180,0.0,-999.0,85,-99.99,,,0.00,Acu-Link.com,2013-04-28 03:56:00,
2013-04-27 23:11:00,48.2,42.3,29.30,South,180,0.0,-999.0,80,-99.99,,,0.00,Acu-Link.com,2013-04-28 04:11:00,
2013-04-27 23:26:00,48.2,40.7,29.30,SSW,202,0.0,-999.0,75,-99.99,,,0.00,Acu-Link.com,2013-04-28 04:26:00,
2013-04-27 23:41:00,47.7,38.0,29.30,SSW,202,0.0,-999.0,69,-99.99,,,0.00,Acu-Link.com,2013-04-28 04:41:00,
2013-04-27 23:56:00,46.6,37.0,29.30,WSW,247,0.0,-999.0,69,-99.99,,,0.00,Acu-Link.com,2013-04-28 04:56:00,